Terminal Aerodrome Forecast
Issued by NWS

Home | Current Version | Previous Version | Text Only | Print | Product List | Glossary On
Versions: 1 2 3 4 5 6 7 8 9 10 11 12 13 14 15 16 17 18 19 20 21 22 23 24 25 26 27 28 29 30 31
651
FTUS43 KGLD 062320
TAFMCK
TAF
KMCK 062320Z 0700/0724 24012KT P6SM SCT250
     FM070500 29011KT P6SM FEW250 WS020/34035KT
     FM070900 30010G16KT P6SM SCT200
     FM071600 30018G28KT P6SM SCT200=

USA.gov is the U.S. government's official web portal to all federal, state and local government web resources and services.